Time,TemperatureF,DewpointF,PressureIn,WindDirection,WindDirectionDegrees,WindSpeedMPH,WindSpeedGustMPH,Humidity,HourlyPrecipIn,Conditions,Clouds,dailyrainin,SoftwareType,DateUTC
2013-03-22 00:08:00,24.6,21.0,29.84,WNW,297,1.0,6.0,87,0.00,,,0.00,weatherlink.com 1.10,2013-03-22 04:08:00,
2013-03-22 00:23:00,24.8,21.0,29.84,West,281,4.0,9.0,86,0.00,,,0.00,weatherlink.com 1.10,2013-03-22 04:23:00,
2013-03-22 00:38:00,24.8,21.0,29.83,West,265,4.0,7.0,86,0.00,,,0.00,weatherlink.com 1.10,2013-03-22 04:38:00,
2013-03-22 00:53:00,24.9,21.0,29.83,WSW,237,0.0,8.0,86,0.00,,,0.00,weatherlink.com 1.10,2013-03-22 04:53:00,
2013-03-22 01:08:00,25.0,21.0,29.83,SW,226,1.0,7.0,86,0.00,,,0.00,weatherlink.com 1.10,2013-03-22 05:08:00,
2013-03-22 01:23:00,25.3,21.0,29.83,SW,226,4.0,5.0,85,0.00,,,0.00,weatherlink.com 1.10,2013-03-22 05:23:00,
2013-03-22 01:38:00,25.4,21.0,29.83,West,262,4.0,12.0,84,0.00,,,0.00,weatherlink.com 1.10,2013-03-22 05:38:00,
2013-03-22 01:53:00,25.5,21.0,29.83,NW,318,3.0,12.0,84,0.00,,,0.00,weatherlink.com 1.10,2013-03-22 05:53:00,
2013-03-22 02:08:00,25.7,22.0,29.84,West,267,6.0,7.0,84,0.00,,,0.00,weatherlink.com 1.10,2013-03-22 06:08:00,
2013-03-22 02:23:00,25.8,21.0,29.84,NNW,330,2.0,8.0,83,0.00,,,0.00,weatherlink.com 1.10,2013-03-22 06:23:00,
2013-03-22 02:38:00,25.9,21.0,29.84,WNW,288,0.0,9.0,82,0.00,,,0.00,weatherlink.com 1.10,2013-03-22 06:38:00,
2013-03-22 02:53:00,25.9,21.0,29.83,NW,314,3.0,9.0,82,0.00,,,0.00,weatherlink.com 1.10,2013-03-22 06:53:00,
2013-03-22 03:08:00,25.9,21.0,29.84,NW,312,0.0,11.0,82,0.00,,,0.00,weatherlink.com 1.10,2013-03-22 07:08:00,
2013-03-22 03:23:00,25.8,21.0,29.83,West,280,1.0,4.0,83,0.00,,,0.00,weatherlink.com 1.10,2013-03-22 07:23:00,
2013-03-22 03:38:00,25.9,21.0,29.83,WNW,285,1.0,11.0,82,0.00,,,0.00,weatherlink.com 1.10,2013-03-22 07:38:00,
2013-03-22 03:53:00,25.9,21.0,29.83,WNW,283,7.0,8.0,82,0.00,,,0.00,weatherlink.com 1.10,2013-03-22 07:53:00,
2013-03-22 04:08:00,26.0,21.0,29.83,NW,311,1.0,10.0,81,0.00,,,0.00,weatherlink.com 1.10,2013-03-22 08:08:00,
2013-03-22 04:24:00,26.0,21.0,29.82,WNW,283,0.0,8.0,81,0.00,,,0.00,weatherlink.com 1.10,2013-03-22 08:24:00,
2013-03-22 04:39:00,25.9,21.0,29.82,West,264,4.0,10.0,82,0.00,,,0.00,weatherlink.com 1.10,2013-03-22 08:39:00,
2013-03-22 04:54:00,25.8,21.0,29.82,WSW,250,2.0,7.0,82,0.00,,,0.00,weatherlink.com 1.10,2013-03-22 08:54:00,
2013-03-22 05:09:00,25.8,21.0,29.83,SSE,152,0.0,10.0,82,0.00,,,0.00,weatherlink.com 1.10,2013-03-22 09:09:00,
2013-03-22 05:24:00,25.8,21.0,29.83,NW,322,1.0,7.0,82,0.00,,,0.00,weatherlink.com 1.10,2013-03-22 09:24:00,
2013-03-22 05:39:00,25.9,21.0,29.83,NW,308,4.0,7.0,81,0.00,,,0.00,weatherlink.com 1.10,2013-03-22 09:39:00,
2013-03-22 05:54:00,25.7,21.0,29.83,WSW,252,0.0,10.0,81,0.00,,,0.00,weatherlink.com 1.10,2013-03-22 09:54:00,
2013-03-22 06:09:00,25.5,20.0,29.84,SSW,201,1.0,6.0,81,0.00,,,0.00,weatherlink.com 1.10,2013-03-22 10:09:00,
2013-03-22 06:24:00,25.6,20.0,29.84,WNW,284,2.0,7.0,80,0.00,,,0.00,weatherlink.com 1.10,2013-03-22 10:24:00,
2013-03-22 06:39:00,25.7,20.0,29.85,WSW,255,3.0,9.0,79,0.00,,,0.00,weatherlink.com 1.10,2013-03-22 10:39:00,
2013-03-22 06:54:00,25.7,20.0,29.85,WNW,300,1.0,5.0,79,0.00,,,0.00,weatherlink.com 1.10,2013-03-22 10:54:00,
2013-03-22 07:09:00,25.5,20.0,29.86,NW,309,2.0,8.0,78,0.00,,,0.00,weatherlink.com 1.10,2013-03-22 11:09:00,
2013-03-22 07:24:00,25.4,19.0,29.87,WNW,285,0.0,7.0,78,0.00,,,0.00,weatherlink.com 1.10,2013-03-22 11:24:00,
2013-03-22 07:39:00,25.4,19.0,29.87,WNW,292,3.0,4.0,78,0.00,,,0.00,weatherlink.com 1.10,2013-03-22 11:39:00,
2013-03-22 07:54:00,25.5,20.0,29.88,West,281,1.0,5.0,78,0.00,,,0.00,weatherlink.com 1.10,2013-03-22 11:54:00,
2013-03-22 08:09:00,25.6,20.0,29.88,SW,217,0.0,6.0,78,0.00,,,0.00,weatherlink.com 1.10,2013-03-22 12:09:00,
2013-03-22 08:24:00,25.9,20.0,29.89,West,263,0.0,9.0,78,0.00,,,0.00,weatherlink.com 1.10,2013-03-22 12:24:00,
2013-03-22 08:39:00,26.2,20.0,29.89,West,274,2.0,5.0,77,0.00,,,0.00,weatherlink.com 1.10,2013-03-22 12:39:00,
2013-03-22 08:54:00,26.4,20.0,29.89,WNW,292,0.0,8.0,77,0.00,,,0.00,weatherlink.com 1.10,2013-03-22 12:54:00,
2013-03-22 09:10:00,26.5,21.0,29.89,SW,233,3.0,10.0,78,0.00,,,0.00,weatherlink.com 1.10,2013-03-22 13:10:00,
2013-03-22 09:24:00,27.0,20.0,29.89,WNW,298,3.0,6.0,76,0.00,,,0.00,weatherlink.com 1.10,2013-03-22 13:24:00,
2013-03-22 09:39:00,27.4,21.0,29.89,NW,314,4.0,11.0,76,0.00,,,0.00,weatherlink.com 1.10,2013-03-22 13:39:00,
2013-03-22 09:54:00,27.9,21.0,29.89,NW,323,2.0,8.0,75,0.00,,,0.00,weatherlink.com 1.10,2013-03-22 13:54:00,
2013-03-22 10:09:00,28.1,21.0,29.90,NW,311,3.0,12.0,74,0.00,,,0.00,weatherlink.com 1.10,2013-03-22 14:09:00,
2013-03-22 10:24:00,27.8,21.0,29.90,WSW,249,7.0,9.0,75,0.00,,,0.00,weatherlink.com 1.10,2013-03-22 14:24:00,
2013-03-22 10:39:00,28.3,22.0,29.90,WNW,296,6.0,9.0,76,0.00,,,0.00,weatherlink.com 1.10,2013-03-22 14:39:00,
2013-03-22 10:54:00,28.6,22.0,29.90,West,269,4.0,10.0,75,0.00,,,0.00,weatherlink.com 1.10,2013-03-22 14:54:00,
2013-03-22 11:09:00,28.9,22.0,29.90,WNW,295,8.0,11.0,76,0.00,,,0.00,weatherlink.com 1.10,2013-03-22 15:09:00,
2013-03-22 11:24:00,28.8,22.0,29.90,WNW,302,6.0,10.0,75,0.00,,,0.00,weatherlink.com 1.10,2013-03-22 15:24:00,
2013-03-22 11:39:00,29.1,22.0,29.91,SE,139,2.0,9.0,75,0.00,,,0.00,weatherlink.com 1.10,2013-03-22 15:39:00,
2013-03-22 11:54:00,29.2,22.0,29.91,WNW,288,5.0,9.0,74,0.00,,,0.00,weatherlink.com 1.10,2013-03-22 15:54:00,
2013-03-22 12:09:00,28.6,21.0,29.91,WNW,288,3.0,9.0,72,0.00,,,0.00,weatherlink.com 1.10,2013-03-22 16:09:00,
2013-03-22 12:24:00,28.8,22.0,29.91,WSW,252,4.0,6.0,74,0.00,,,0.00,weatherlink.com 1.10,2013-03-22 16:24:00,
2013-03-22 12:40:00,28.4,21.0,29.91,WNW,289,7.0,9.0,74,0.00,,,0.00,weatherlink.com 1.10,2013-03-22 16:40:00,
2013-03-22 12:55:00,29.3,22.0,29.91,WNW,285,2.0,11.0,74,0.00,,,0.00,weatherlink.com 1.10,2013-03-22 16:55:00,
2013-03-22 13:10:00,30.1,22.0,29.91,West,266,2.0,8.0,72,0.00,,,0.00,weatherlink.com 1.10,2013-03-22 17:10:00,
2013-03-22 13:25:00,30.0,22.0,29.91,SW,222,0.0,10.0,73,0.00,,,0.00,weatherlink.com 1.10,2013-03-22 17:25:00,
2013-03-22 13:40:00,30.4,22.0,29.90,NNW,338,0.0,10.0,72,0.00,,,0.00,weatherlink.com 1.10,2013-03-22 17:40:00,
2013-03-22 13:55:00,31.1,23.0,29.91,NNE,27,1.0,11.0,73,0.00,,,0.00,weatherlink.com 1.10,2013-03-22 17:55:00,
2013-03-22 14:10:00,30.9,23.0,29.91,WNW,302,7.0,10.0,71,0.00,,,0.00,weatherlink.com 1.10,2013-03-22 18:10:00,
2013-03-22 14:25:00,29.5,23.0,29.91,West,281,4.0,10.0,76,0.00,,,0.00,weatherlink.com 1.10,2013-03-22 18:25:00,
2013-03-22 14:40:00,29.8,23.0,29.91,West,281,5.0,9.0,76,0.00,,,0.00,weatherlink.com 1.10,2013-03-22 18:40:00,
2013-03-22 14:55:00,30.1,23.0,29.91,NW,307,3.0,9.0,74,0.00,,,0.00,weatherlink.com 1.10,2013-03-22 18:55:00,
2013-03-22 15:10:00,30.1,24.0,29.91,SSW,210,6.0,9.0,77,0.00,,,0.00,weatherlink.com 1.10,2013-03-22 19:10:00,
2013-03-22 15:25:00,30.0,24.0,29.91,WNW,288,2.0,9.0,77,0.00,,,0.00,weatherlink.com 1.10,2013-03-22 19:25:00,
2013-03-22 15:40:00,30.2,24.0,29.92,South,169,6.0,9.0,76,0.00,,,0.00,weatherlink.com 1.10,2013-03-22 19:40:00,
2013-03-22 15:55:00,29.8,23.0,29.92,West,265,6.0,8.0,77,0.00,,,0.00,weatherlink.com 1.10,2013-03-22 19:55:00,
2013-03-22 16:10:00,30.4,24.0,29.92,NW,314,3.0,9.0,77,0.00,,,0.00,weatherlink.com 1.10,2013-03-22 20:10:00,
2013-03-22 16:25:00,31.1,24.0,29.92,WNW,295,4.0,8.0,74,0.00,,,0.00,weatherlink.com 1.10,2013-03-22 20:25:00,
2013-03-22 16:40:00,31.5,23.0,29.93,WNW,295,7.0,8.0,72,0.00,,,0.00,weatherlink.com 1.10,2013-03-22 20:40:00,
2013-03-22 16:55:00,31.2,22.0,29.93,West,276,1.0,9.0,69,0.00,,,0.00,weatherlink.com 1.10,2013-03-22 20:55:00,
2013-03-22 17:10:00,31.2,22.0,29.93,WNW,300,3.0,10.0,68,0.00,,,0.00,weatherlink.com 1.10,2013-03-22 21:10:00,
2013-03-22 17:25:00,31.2,22.0,29.93,WNW,283,2.0,7.0,69,0.00,,,0.00,weatherlink.com 1.10,2013-03-22 21:25:00,
2013-03-22 17:40:00,31.0,22.0,29.94,West,276,0.0,9.0,69,0.00,,,0.00,weatherlink.com 1.10,2013-03-22 21:40:00,
2013-03-22 17:55:00,31.0,22.0,29.94,West,277,2.0,7.0,69,0.00,,,0.00,weatherlink.com 1.10,2013-03-22 21:55:00,
2013-03-22 18:10:00,31.0,22.0,29.93,NW,305,6.0,8.0,68,0.00,,,0.00,weatherlink.com 1.10,2013-03-22 22:10:00,
2013-03-22 18:25:00,31.1,22.0,29.94,WNW,295,2.0,6.0,69,0.00,,,0.00,weatherlink.com 1.10,2013-03-22 22:25:00,
2013-03-22 18:40:00,31.0,22.0,29.94,WNW,287,2.0,7.0,68,0.00,,,0.00,weatherlink.com 1.10,2013-03-22 22:40:00,
2013-03-22 18:55:00,30.8,21.0,29.94,WNW,294,4.0,7.0,68,0.00,,,0.00,weatherlink.com 1.10,2013-03-22 22:55:00,
2013-03-22 19:10:00,30.6,21.0,29.95,WNW,301,2.0,5.0,68,0.00,,,0.00,weatherlink.com 1.10,2013-03-22 23:10:00,
2013-03-22 19:25:00,30.5,21.0,29.95,WNW,294,1.0,5.0,69,0.00,,,0.00,weatherlink.com 1.10,2013-03-22 23:25:00,
2013-03-22 19:40:00,30.3,22.0,29.95,WNW,295,4.0,7.0,70,0.00,,,0.00,weatherlink.com 1.10,2013-03-22 23:40:00,
2013-03-22 19:55:00,30.0,22.0,29.96,WNW,291,3.0,4.0,71,0.00,,,0.00,weatherlink.com 1.10,2013-03-22 23:55:00,
2013-03-22 20:10:00,30.1,22.0,29.96,West,277,1.0,4.0,72,0.00,,,0.00,weatherlink.com 1.10,2013-03-23 00:10:00,
2013-03-22 20:25:00,29.9,22.0,29.96,WNW,295,1.0,3.0,72,0.00,,,0.00,weatherlink.com 1.10,2013-03-23 00:25:00,
2013-03-22 20:40:00,29.2,21.0,29.96,WSW,256,0.0,2.0,72,0.00,,,0.00,weatherlink.com 1.10,2013-03-23 00:40:00,
2013-03-22 20:55:00,28.3,21.0,29.97,WNW,284,1.0,2.0,74,0.00,,,0.00,weatherlink.com 1.10,2013-03-23 00:55:00,
2013-03-22 21:10:00,27.7,21.0,29.97,West,273,0.0,1.0,75,0.00,,,0.00,weatherlink.com 1.10,2013-03-23 01:10:00,
2013-03-22 21:25:00,26.7,20.0,29.97,West,271,0.0,0.0,76,0.00,,,0.00,weatherlink.com 1.10,2013-03-23 01:25:00,
2013-03-22 21:40:00,25.8,20.0,29.97,West,271,0.0,0.0,77,0.00,,,0.00,weatherlink.com 1.10,2013-03-23 01:40:00,
2013-03-22 21:55:00,25.0,19.0,29.98,West,271,0.0,0.0,79,0.00,,,0.00,weatherlink.com 1.10,2013-03-23 01:55:00,
2013-03-22 22:10:00,24.5,19.0,29.98,West,271,0.0,0.0,80,0.00,,,0.00,weatherlink.com 1.10,2013-03-23 02:10:00,
2013-03-22 22:25:00,23.8,19.0,29.98,West,271,0.0,0.0,82,0.00,,,0.00,weatherlink.com 1.10,2013-03-23 02:25:00,
2013-03-22 22:40:00,23.3,19.0,29.98,West,271,0.0,0.0,83,0.00,,,0.00,weatherlink.com 1.10,2013-03-23 02:40:00,
2013-03-22 22:55:00,22.7,19.0,29.98,West,271,0.0,0.0,84,0.00,,,0.00,weatherlink.com 1.10,2013-03-23 02:55:00,
2013-03-22 23:10:00,22.2,18.0,29.98,West,271,0.0,0.0,85,0.00,,,0.00,weatherlink.com 1.10,2013-03-23 03:10:00,
2013-03-22 23:25:00,21.6,18.0,29.97,West,271,0.0,0.0,85,0.00,,,0.00,weatherlink.com 1.10,2013-03-23 03:25:00,
2013-03-22 23:41:00,21.5,18.0,29.98,West,271,0.0,0.0,86,0.00,,,0.00,weatherlink.com 1.10,2013-03-23 03:41:00,
2013-03-22 23:57:00,21.4,18.0,29.98,West,271,0.0,0.0,86,0.00,,,0.00,weatherlink.com 1.10,2013-03-23 03:57:00,